• In United Kingdom
  • List of Countries
  • For 7 days
  • Water Temperature
  • Satellite Maps
  • Weather Map
  • Weather Widgets
  • user-avatar
    Login

    Hourly Weather Kitzbuhel

    Today, 21 September, Thursday

    Time Temperature Precipitation Wind Pressure Humidity
    00:00 +2°C° 0 mm 2 mps 679 mmHg 93%
    01:00 +2°C° 0 mm 2 mps 679 mmHg 92%
    02:00 +2°C° 0 mm 2 mps 679 mmHg 90%
    03:00 +2°C° 0 mm 2 mps 679 mmHg 89%
    04:00 +1°C° 0 mm 2 mps 679 mmHg 88%
    05:00 +2°C° 0 mm 2 mps 679 mmHg 86%
    06:00 +2°C° 0 mm 2 mps 679 mmHg 84%
    07:00 +4°C° 0 mm 1 mps 679 mmHg 82%
    08:00 +6°C° 0 mm 1 mps 679 mmHg 78%
    09:00 +9°C° 0 mm 1 mps 680 mmHg 73%
    10:00 +12°C° 0 mm 1 mps 680 mmHg 69%
    11:00 +12°C° 0 mm 1 mps 680 mmHg 67%
    12:00 +13°C° 0 mm 1 mps 679 mmHg 65%
    13:00 +14°C° 0 mm 2 mps 679 mmHg 63%
    14:00 +14°C° 0 mm 2 mps 679 mmHg 65%
    15:00 +13°C° 0 mm 2 mps 679 mmHg 66%
    16:00 +13°C° 0 mm 2 mps 678 mmHg 68%
    17:00 +11°C° 0 mm 1 mps 678 mmHg 75%
    18:00 +9°C° 0 mm 1 mps 678 mmHg 82%
    19:00 +6°C° 0 mm 1 mps 678 mmHg 89%
    20:00 +6°C° 0 mm 1 mps 678 mmHg 87%
    21:00 +6°C° 0 mm 1 mps 678 mmHg 86%
    22:00 +5°C° 0 mm 1 mps 679 mmHg 85%
    23:00 +4°C° 0 mm 2 mps 679 mmHg 81%

    Tomorrow, 22 September, Friday

    Time Temperature Precipitation Wind Pressure Humidity
    00:00 +4°C° 0 mm 2 mps 679 mmHg 78%
    01:00 +4°C° 0 mm 2 mps 679 mmHg 75%
    02:00 +4°C° 0 mm 2 mps 679 mmHg 73%
    03:00 +4°C° 0 mm 2 mps 679 mmHg 72%
    04:00 +4°C° 0 mm 2 mps 679 mmHg 70%
    05:00 +5°C° 0 mm 2 mps 679 mmHg 69%
    06:00 +6°C° 0 mm 1 mps 679 mmHg 69%
    07:00 +7°C° 0 mm 1 mps 679 mmHg 68%
    08:00 +10°C° 0 mm 1 mps 680 mmHg 66%
    09:00 +13°C° 0 mm 1 mps 680 mmHg 64%
    10:00 +16°C° 0 mm 1 mps 681 mmHg 61%
    11:00 +16°C° 0 mm 1 mps 681 mmHg 61%
    12:00 +18°C° 0 mm 1 mps 681 mmHg 60%
    13:00 +19°C° 0 mm 1 mps 681 mmHg 59%
    14:00 +18°C° 0 mm 1 mps 680 mmHg 62%
    15:00 +16°C° 0 mm 1 mps 680 mmHg 64%
    16:00 +16°C° 0 mm 1 mps 680 mmHg 67%
    17:00 +14°C° 0 mm 1 mps 680 mmHg 74%
    18:00 +11°C° 0 mm 1 mps 680 mmHg 80%
    19:00 +9°C° 0 mm 1 mps 680 mmHg 87%
    20:00 +9°C° 0 mm 1 mps 680 mmHg 87%
    21:00 +9°C° 0 mm 1 mps 680 mmHg 88%
    22:00 +8°C° 0 mm 1 mps 681 mmHg 88%
    23:00 +8°C° 0 mm 1 mps 681 mmHg 88%

    Day after tomorrow, 23 September, Saturday

    Time Temperature Precipitation Wind Pressure Humidity
    00:00 +8°C° 0 mm 1 mps 681 mmHg 87%
    01:00 +8°C° 0 mm 1 mps 681 mmHg 87%
    02:00 +8°C° 0 mm 1 mps 680 mmHg 87%
    03:00 +8°C° 0 mm 1 mps 680 mmHg 87%
    04:00 +8°C° 0 mm 1 mps 680 mmHg 87%
    05:00 +8°C° 0 mm 1 mps 680 mmHg 86%
    06:00 +8°C° 0 mm 1 mps 681 mmHg 85%
    07:00 +9°C° 0 mm 1 mps 681 mmHg 85%
    08:00 +11°C° 0 mm 1 mps 681 mmHg 79%
    09:00 +13°C° 0 mm 1 mps 681 mmHg 74%
    10:00 +15°C° 0 mm 0 mps 682 mmHg 68%
    11:00 +16°C° 0 mm 1 mps 681 mmHg 66%
    12:00 +18°C° 0 mm 1 mps 681 mmHg 63%
    13:00 +18°C° 0 mm 1 mps 681 mmHg 61%
    14:00 +18°C° 0.3 mm 1 mps 681 mmHg 67%
    15:00 +16°C° 0.3 mm 1 mps 680 mmHg 74%
    16:00 +16°C° 0.3 mm 1 mps 680 mmHg 80%
    17:00 +14°C° 0.4 mm 1 mps 680 mmHg 85%
    18:00 +11°C° 0.4 mm 0 mps 679 mmHg 90%
    19:00 +9°C° 0.4 mm 0 mps 679 mmHg 95%
    20:00 +9°C° 0.2 mm 0 mps 679 mmHg 95%
    21:00 +9°C° 0.2 mm 0 mps 679 mmHg 95%
    22:00 +9°C° 0.2 mm 1 mps 679 mmHg 95%
    23:00 +9°C° 0 mm 1 mps 679 mmHg 95%

    24 September, Sunday

    Time Temperature Precipitation Wind Pressure Humidity
    00:00 +9°C° 0 mm 1 mps 679 mmHg 95%
    01:00 +9°C° 0 mm 1 mps 679 mmHg 95%
    02:00 +8°C° 0 mm 1 mps 679 mmHg 95%
    03:00 +8°C° 0 mm 1 mps 679 mmHg 95%
    04:00 +8°C° 0 mm 1 mps 679 mmHg 95%
    05:00 +8°C° 0.1 mm 1 mps 679 mmHg 94%
    06:00 +8°C° 0.1 mm 1 mps 679 mmHg 94%
    07:00 +8°C° 0.1 mm 1 mps 679 mmHg 93%
    08:00 +10°C° 0 mm 1 mps 680 mmHg 87%
    09:00 +13°C° 0 mm 1 mps 680 mmHg 81%
    10:00 +15°C° 0 mm 1 mps 681 mmHg 75%
    11:00 +15°C° 0.1 mm 1 mps 681 mmHg 72%
    12:00 +16°C° 0.1 mm 1 mps 681 mmHg 69%
    13:00 +16°C° 0.1 mm 1 mps 680 mmHg 66%
    14:00 +16°C° 0.2 mm 1 mps 680 mmHg 69%
    15:00 +15°C° 0.2 mm 1 mps 680 mmHg 73%
    16:00 +15°C° 0.2 mm 2 mps 680 mmHg 77%
    17:00 +13°C° 0.1 mm 1 mps 680 mmHg 83%
    18:00 +11°C° 0.1 mm 1 mps 680 mmHg 89%
    19:00 +9°C° 0.1 mm 1 mps 680 mmHg 95%
    20:00 +9°C° 0 mm 1 mps 680 mmHg 95%
    21:00 +8°C° 0 mm 1 mps 680 mmHg 95%
    22:00 +8°C° 0 mm 1 mps 680 mmHg 95%
    23:00 +7°C° 0 mm 1 mps 680 mmHg 94%

    25 September, Monday

    Time Temperature Precipitation Wind Pressure Humidity
    00:00 +7°C° 0 mm 1 mps 679 mmHg 92%
    01:00 +7°C° 0 mm 1 mps 679 mmHg 90%
    02:00 +6°C° 0 mm 1 mps 679 mmHg 89%
    03:00 +6°C° 0 mm 1 mps 679 mmHg 87%
    04:00 +6°C° 0 mm 1 mps 678 mmHg 86%
    05:00 +7°C° 0 mm 1 mps 678 mmHg 85%
    06:00 +7°C° 0 mm 1 mps 679 mmHg 85%
    07:00 +7°C° 0 mm 1 mps 679 mmHg 84%
    08:00 +10°C° 0 mm 1 mps 679 mmHg 77%
    09:00 +13°C° 0 mm 1 mps 679 mmHg 70%
    10:00 +15°C° 0 mm 1 mps 679 mmHg 63%
    11:00 +16°C° 0 mm 1 mps 679 mmHg 60%
    12:00 +18°C° 0 mm 1 mps 679 mmHg 56%
    13:00 +18°C° 0 mm 1 mps 679 mmHg 52%
    14:00 +18°C° 0 mm 1 mps 678 mmHg 55%
    15:00 +18°C° 0 mm 1 mps 678 mmHg 59%
    16:00 +16°C° 0 mm 1 mps 678 mmHg 62%
    17:00 +14°C° 0 mm 1 mps 678 mmHg 72%
    18:00 +11°C° 0 mm 1 mps 677 mmHg 82%
    19:00 +9°C° 0 mm 1 mps 677 mmHg 92%
    20:00 +9°C° 0 mm 1 mps 677 mmHg 92%
    21:00 +8°C° 0 mm 1 mps 677 mmHg 92%
    22:00 +8°C° 0 mm 1 mps 677 mmHg 91%
    23:00 +8°C° 0 mm 1 mps 677 mmHg 90%

    26 September, Tuesday

    Time Temperature Precipitation Wind Pressure Humidity
    00:00 +8°C° 0 mm 1 mps 677 mmHg 90%
    01:00 +8°C° 0 mm 1 mps 677 mmHg 89%
    02:00 +8°C° 0 mm 1 mps 676 mmHg 89%
    03:00 +7°C° 0 mm 1 mps 676 mmHg 89%
    04:00 +7°C° 0 mm 1 mps 676 mmHg 89%
    05:00 +7°C° 0 mm 1 mps 676 mmHg 88%
    06:00 +8°C° 0 mm 1 mps 676 mmHg 88%
    07:00 +8°C° 0 mm 1 mps 677 mmHg 87%
    08:00 +10°C° 0 mm 1 mps 677 mmHg 78%
    09:00 +13°C° 0 mm 1 mps 678 mmHg 70%
    10:00 +15°C° 0 mm 1 mps 678 mmHg 61%
    11:00 +16°C° 0 mm 1 mps 678 mmHg 59%
    12:00 +18°C° 0 mm 1 mps 678 mmHg 57%
    13:00 +17°C° 0 mm 2 mps 678 mmHg 55%
    14:00 +17°C° 0.1 mm 2 mps 678 mmHg 60%
    15:00 +16°C° 0.1 mm 2 mps 678 mmHg 65%
    16:00 +16°C° 0.1 mm 2 mps 677 mmHg 70%
    17:00 +14°C° 0.1 mm 2 mps 677 mmHg 78%
    18:00 +12°C° 0.1 mm 1 mps 677 mmHg 86%
    19:00 +10°C° 0.1 mm 1 mps 677 mmHg 93%
    20:00 +9°C° 0 mm 1 mps 677 mmHg 93%
    21:00 +9°C° 0 mm 1 mps 677 mmHg 93%
    22:00 +8°C° 0 mm 2 mps 677 mmHg 93%
    23:00 +7°C° 0 mm 2 mps 677 mmHg 93%
    Show more